GSAT-17 (42815 NORAD) Tracking and Keplerian Element Data

This shows tracking and keplerian element data for the satellite.

Feedback or suggestion? Click here.




ElementValue
Catalog42815
NameGSAT-17
Epoch Orbit541
Epoch Day351.58209126
Epoch Year2018
RAAN123.9722
Inclination0.0445
Eccentricity0.0006508
Argument of Perigee140.8041
Mean Anonmoly124.4371
Mean Motion1.00272132
Decay Rate-2.42E-06
L11 42815U 17040B 18351.58209126 -.00000242 00000-0 00000+0 0 9991
L22 42815 0.0445 123.9722 0006508 140.8041 124.4371 1.00272132 5418

Live tracking and technical data element details for GSAT-17 (NORAD 42815). GSAT-17 can be tracked NOW for your location showing map with azimuth and elevation plus other details from your city location.

Track the satellite on the map from your city or location and see movement details for azimuth, elevation, latitude, longitude, range, height, and movement on the map or in text.







IsCatalogInMostPopularTable: catalog: 42815, numindb: 97
Update: records affected: 1



GetName: 42815 GSAT-17

Hit Count: updated at: Wed, 19 Dec 2018 15:13:30 GMT